Location: Brede
(50.9167°N, 0.6000°E)
Time: 03:36:10
(UTC+00:00)

ATLAS 3B R/B - Pass Details

Date: 08 August 2020
Orbit: 1016 x 1179 km, 63.8° (Epoch: 22 September)

Event Time Altitude Azimuth Distance (km) Brightness Sun altitude
Rises 02:42:39 0° 277° (W) 3,759 5.3 -14.5°
Reaches altitude 10° 02:45:38 10° 289° (WNW) 2,817 4.7 -14.2°
Maximum altitude 02:51:19 29° 348° (NNW) 1,801 4.3 -13.6°
Drops below altitude 10° 02:57:09 10° 48° (NE) 2,887 6.5 -13.0°
Sets 03:00:15 0° 59° (ENE) 3,868 7.3 -12.7°
